Home > Time Zones > World Clock > Weather > Macau > Macau > Past weeks

Flag for Macau Weather past 2 weeks in Macau, Macau

Now
77 °F

Passing clouds.


Feels Like: 78 °F
Forecast: 78 / 84 °F
Wind: 14 mph from East

Location: Taipa

Current Time: May 22, 2015 at 10:05:29 PM

Latest Report: May 22, 2015 at 9:30 PM


Visibility: N/A

Pressure: 29.74 "Hg

Humidity: 94%

Dew point: 75 °F

Location of MacauLocation

Historic Weather in Macau — Graph

°F

Macau temperature yesterday

Maximum temperature yesterday: 79 °F (at 8:00 AM)
Minimum temperature yesterday: 75 °F (at 5:30 PM)
Average temperature yesterday: 77 °F

Past Weeks' High & Low Weather Summary

 TemperatureHumidityPressure
High88 °F (May 15, 12:30 PM)100% (May 11, 8:30 PM)29.95 "Hg (May 11, 8:30 PM)
Low72 °F (May 12, 4:30 AM)51% (May 12, 3:30 PM)29.65 "Hg (May 19, 5:00 PM)
Average80 °F87%29.78 "Hg
* Reported May 7 9:00 PM — May 22 9:00 PM, Macau, Weather by CustomWeather, © 2015

Note: Actual official high and low records may vary slightly from our data, if they occured in-between our weather recording intervals... More about our weather records

Advertising

Macau weather history for previous 24 hours

 ConditionsComfort  
Time TempWeatherWind HumidityBarometerVisibility
9:00 PM
Fri, May 22
77 °FPassing clouds.15 mph94%29.74 "HgN/A
8:30 PM77 °FSprinkles. Passing clouds.14 mph94%29.74 "Hg6 mi
8:00 PM77 °FSprinkles. Passing clouds.15 mph89%29.74 "HgN/A
7:30 PM77 °FPassing clouds.15 mph89%29.74 "HgN/A
7:00 PM77 °FScattered clouds.17 mph89%29.71 "Hg6 mi
6:30 PM77 °FScattered clouds.15 mph89%29.68 "Hg6 mi
6:00 PM77 °FScattered clouds.16 mph89%29.68 "HgN/A
5:30 PM77 °FSprinkles. Scattered clouds.14 mph89%29.68 "Hg6 mi
5:00 PM77 °FSprinkles. Scattered clouds.16 mph89%29.71 "HgN/A
4:30 PM77 °FScattered clouds.15 mph89%29.71 "HgN/A
4:00 PM77 °FScattered showers. Scattered clouds.13 mph89%29.71 "Hg5 mi
3:30 PM77 °FSprinkles. Scattered clouds.13 mph89%29.74 "HgN/A
3:00 PM77 °FScattered clouds.14 mph89%29.74 "HgN/A
2:30 PM75 °FBroken clouds.12 mph94%29.74 "HgN/A
2:00 PM75 °FSprinkles. Broken clouds.7 mph94%29.77 "Hg5 mi
1:45 PM75 °FSprinkles. Broken clouds.3 mph94%29.77 "Hg4 mi
1:30 PM75 °FRain showers. Broken clouds.18 mph94%29.77 "Hg2 mi
1:00 PM77 °FScattered showers. Scattered clouds.24 mph89%29.77 "Hg6 mi
12:30 PM77 °FScattered showers. Scattered clouds.21 mph89%29.77 "HgN/A
12:00 PM77 °FScattered clouds.20 mph89%29.77 "HgN/A
11:30 AM77 °FSprinkles. Scattered clouds.21 mph89%29.80 "Hg6 mi
11:00 AM77 °FScattered clouds.17 mph89%29.80 "HgN/A
10:30 AM77 °FSprinkles. Scattered clouds.16 mph89%29.80 "HgN/A
10:00 AM77 °FScattered clouds.16 mph89%29.80 "HgN/A
9:30 AM75 °FScattered clouds.17 mph94%29.80 "HgN/A
9:00 AM75 °FSprinkles. Scattered clouds.16 mph94%29.77 "Hg6 mi
8:30 AM75 °FSprinkles. Scattered clouds.17 mph94%29.77 "Hg6 mi
8:00 AM75 °FSprinkles. Scattered clouds.18 mph89%29.77 "Hg6 mi
7:30 AM75 °FSprinkles. Scattered clouds.17 mph89%29.77 "Hg6 mi
7:00 AM75 °FScattered clouds.18 mph89%29.77 "HgN/A
6:30 AM75 °FScattered clouds.14 mph89%29.77 "HgN/A
6:00 AM75 °FScattered clouds.16 mph89%29.77 "HgN/A
5:30 AM75 °FPassing clouds.17 mph89%29.74 "HgN/A
5:00 AM75 °FPassing clouds.18 mph89%29.74 "HgN/A
4:30 AM75 °FPassing clouds.16 mph89%29.74 "HgN/A
4:00 AM75 °FPassing clouds.17 mph89%29.74 "HgN/A
3:30 AM75 °FPassing clouds.17 mph89%29.74 "HgN/A
3:00 AM75 °FPassing clouds.18 mph89%29.77 "HgN/A
2:30 AM75 °FPassing clouds.18 mph89%29.77 "HgN/A
2:00 AM75 °FPassing clouds.20 mph94%29.77 "HgN/A
1:30 AM75 °FPassing clouds.21 mph89%29.77 "HgN/A
1:00 AM75 °FPassing clouds.20 mph89%29.77 "HgN/A
12:30 AM75 °FPassing clouds.21 mph89%29.77 "HgN/A
12:00 AM75 °FPassing clouds.18 mph89%29.80 "HgN/A
11:30 PM
Thu, May 21
75 °FPassing clouds.20 mph89%29.80 "HgN/A
11:00 PM75 °FRain showers. Passing clouds.18 mph89%29.80 "HgN/A
10:30 PM75 °FPassing clouds.17 mph89%29.80 "HgN/A
10:00 PM75 °FPassing clouds.20 mph89%29.80 "HgN/A
Weather by CustomWeather, © 2015

See weather overviewHow to use our weather pages